[[{"header":{"parameterUnit":"m.s-1","parameterCategory":1,"la1":30.2991,"la2":30.254,"lo1":-89.0895,"lo2":-89.0444,"dy":0.0017,"dx":0.0017,"nx":28,"ny":28,"refTime":"2024-05-19T09:00:00:Z","depth":0,"parameterNumber":2,"parameterNumberName":"U-component_of_WINDS"},"data":[0,0,0,0,0,0,0,0,0,0,0,0,0,0,0,0,0,0,0,0,0,0,0,0,0,0,0,0,0,0,0,0,0,0,0,0,0,0,0,0,0,0,0,0,0,0,0,0,0,0,0,0,0,0,0,0,0,0,2.9425,2.9426,0,2.9517,2.9518,2.9519,2.9448,2.9445,2.9442,2.9439,2.954,2.9545,2.9551,0,0,0,0,0,0,0,0,0,0,0,0,0,2.9195,2.9199,2.9425,2.9426,2.9428,2.9517,2.9518,2.9519,2.9449,2.9445,2.9441,2.9438,2.9538,2.9545,2.9551,0,0,0,0,0,0,0,0,0,0,0,0,0,2.9292,2.9201,2.9425,2.9403,2.9402,2.9517,2.9518,2.952,2.945,2.9445,2.944,2.9436,2.9536,2.9544,2.9552,2.9696,0,0,2.9578,2.9581,0,0,0,0,0,0,0,0,2.9286,2.93,2.9405,2.9405,2.9404,2.9466,2.9474,2.9579,2.9451,2.9432,2.9439,2.9434,2.952,2.9529,2.9557,2.9701,2.9705,2.9578,2.9583,2.9587,2.9589,0,0,0,0,0,0,0,2.928,2.9296,2.9462,2.9407,2.9406,2.939,2.9399,2.9493,2.9501,2.9433,2.9428,2.9439,2.9518,2.9549,2.9558,2.9706,2.9578,2.9586,2.9591,2.9594,2.9972,2.9977,0,0,0,0,0,0,2.9274,2.9291,2.9459,2.9464,2.9332,2.9398,2.9408,2.9451,2.9499,2.9502,2.9443,2.9436,2.9537,2.9549,2.9562,2.9733,2.9587,2.9595,2.9599,2.9967,2.9974,2.9979,0,0,0,0,0,0,2.927,2.929,2.9455,2.9376,2.9396,2.9407,2.9456,2.9455,2.9485,2.9507,2.9509,2.9473,2.9534,2.955,2.9662,2.9735,2.9598,2.9606,2.9961,2.9969,2.9976,3.0076,0,0,0,0,0,0,2.9263,2.9289,2.9342,2.9378,2.9401,2.9553,2.946,2.946,2.9499,2.949,2.9535,2.9538,2.9531,2.965,2.9671,2.9744,2.9613,2.9955,2.9965,2.9974,3.0066,3.0086,3.0103,0,0,0,0,0,2.9255,2.9368,2.9345,2.9366,2.9467,2.9557,2.957,2.9558,2.9505,2.956,2.9574,2.9537,2.9724,2.9662,2.9685,2.9762,2.995,2.9962,2.9973,3.0058,3.0082,3.0102,0,0,0,0,0,0,2.9343,2.9372,2.9347,2.9475,2.9514,2.9545,2.9613,2.9584,2.9641,2.9631,2.9615,2.9626,2.9744,2.9764,2.9695,2.9903,2.9829,2.9845,2.9886,2.9909,2.9927,2.992,2.9619,0,0,0,0,0,2.9377,2.9445,2.9468,2.9578,2.9599,2.9603,2.9642,2.9629,2.967,2.9687,2.9709,2.9752,2.982,2.9865,2.9929,3.0068,3.0078,3.0133,3.0151,3.0166,3.0181,3.0255,3.028,3.0016,3.0016,3.0016,0,0,2.9448,2.9472,2.9517,2.9596,2.9625,2.9698,2.9618,2.9699,2.9753,2.97,2.9806,2.9824,2.9871,2.9997,3.0054,3.0018,3.0255,3.018,3.0192,3.0199,3.027,3.0295,3.0317,3.0024,3.0023,3.0022,0,0,2.9615,2.964,2.9734,2.9764,2.9808,2.9809,2.9832,2.9868,2.9877,2.9983,2.9944,3.001,3.0128,3.0163,3.0196,3.0375,3.0343,3.0397,3.0493,3.0566,3.0587,3.0605,3.0669,3.0693,3.0411,3.0411,3.0412,0,2.9698,2.9805,2.9787,2.987,2.9907,2.9859,2.9955,2.9986,3.005,3.0077,3.0034,3.018,3.0209,3.0342,3.0386,3.0414,3.0441,3.0392,3.0585,3.0603,3.062,3.0681,3.0705,3.0418,3.0417,3.0416,3.0416,0,2.9906,2.998,3.0052,3.0111,3.0156,3.0245,3.0243,3.029,3.0273,3.028,3.0389,3.0421,3.0491,3.0521,3.0507,3.0653,3.0629,3.0586,3.0512,3.0652,3.0709,3.0732,3.0426,3.0424,3.0422,3.0421,0,0,3.0131,3.0178,3.0205,3.0231,3.0276,3.0334,3.0422,3.0487,3.0529,3.0574,3.0648,3.0748,3.0708,3.0746,3.0735,3.0799,3.0939,3.0749,3.0749,3.0783,3.1103,3.1135,3.1162,3.0918,3.0922,3.0926,3.1099,0,3.03,3.045,3.0437,3.058,3.0649,3.0605,3.0681,3.0718,3.0726,3.0788,3.0798,3.0869,3.0811,3.0833,3.0895,3.0909,3.1003,3.0896,3.0988,3.0992,3.0978,3.1192,3.1226,3.1388,3.1121,3.1125,3.1127,0,3.0517,3.0568,3.0717,3.075,3.0779,3.0848,3.0906,3.0965,3.1006,3.1008,3.1049,3.1027,3.1117,3.1039,3.1164,3.1091,3.1128,3.1141,3.1147,3.1155,3.1068,3.1206,3.1439,3.1463,3.1162,3.116,3.1157,0,3.0667,3.0773,3.0875,3.0899,3.0941,3.099,3.101,3.1046,3.1086,3.1138,3.1164,3.1227,3.1261,3.1311,3.1307,3.1251,3.1434,3.1356,3.1439,3.1439,3.148,3.1477,3.1722,3.1503,3.1503,3.1502,3.1502,0,3.0857,3.0951,3.0943,3.1006,3.111,3.1094,3.1198,3.1212,3.1244,3.1311,3.1277,3.1341,3.1331,3.1395,3.1393,3.1496,3.1512,3.1517,3.1515,3.152,3.152,3.1545,3.1533,3.1509,3.1507,3.1506,3.1505,0,3.1042,3.104,3.115,3.1179,3.1188,3.1264,3.129,3.135,3.1355,3.144,3.1459,3.1468,3.1542,3.1542,3.1628,3.1626,3.1752,3.1738,3.1738,3.1735,3.1818,3.181,3.2087,3.2123,3.1881,3.1884,3.1885,0,3.1164,3.1234,3.127,3.1311,3.1333,3.1401,3.144,3.1428,3.1471,3.1522,3.1577,3.1647,3.1703,3.1823,3.1838,3.1903,3.189,3.1983,3.19,3.1902,3.1892,3.1888,3.1895,3.1999,3.2002,3.2004,3.2006,0,3.138,3.1375,3.1433,3.1491,3.1539,3.1585,3.1627,3.1663,3.1655,3.1706,3.1779,3.1822,3.1907,3.1978,3.204,3.2062,3.2034,3.2032,3.2054,3.206,3.2057,3.206,3.1782,3.2026,3.2024,3.2022,3.2021,3.202,3.1537,3.1597,3.1631,3.1697,3.1727,3.1767,3.1825,3.1836,3.1897,3.1964,3.1953,3.2036,3.2075,3.2155,3.2183,3.2248,3.2216,3.2249,3.2257,3.2266,3.2274,3.2046,3.2259,3.2259,3.2258,3.2258,3.2257,0,3.1751,3.177,3.1831,3.1889,3.1942,3.1907,3.1952,3.1998,3.207,3.2108,3.2162,3.2247,3.2315,3.2335,3.2401,3.245,3.2438,3.2467,3.2464,3.2469,3.2299,3.2273,3.2476,3.2475,3.2475,3.2475,3.2475,3.2475,3.1868,3.1968,3.1968,3.2083,3.2102,3.2181,3.2209,3.2246,3.2276,3.2372,3.2427,3.2438,3.247,3.2537,3.2598,3.2602,3.2628,3.2663,3.2662,3.2503,3.2482,3.2461,3.2436,3.2669,3.2669,3.2827,3.2828,3.2829]},{"header":{"parameterUnit":"m.s-1","parameterCategory":1,"la1":30.2991,"la2":30.254,"lo1":-89.0895,"lo2":-89.0444,"dy":0.0017,"dx":0.0017,"nx":28,"ny":28,"refTime":"2024-05-19T09:00:00:Z","depth":0,"parameterNumber":3,"parameterNumberName":"V-component_of_WINDS"},"data":[0,0,0,0,0,0,0,0,0,0,0,0,0,0,0,0,0,0,0,0,0,0,0,0,0,0,0,0,0,0,0,0,0,0,0,0,0,0,0,0,0,0,0,0,0,0,0,0,0,0,0,0,0,0,0,0,0,0,-1.6757,-1.6757,0,-1.6801,-1.6802,-1.6802,-1.6785,-1.6784,-1.6783,-1.6782,-1.6829,-1.6831,-1.6834,0,0,0,0,0,0,0,0,0,0,0,0,0,-1.6659,-1.6661,-1.6757,-1.6757,-1.6758,-1.6801,-1.6802,-1.6802,-1.6785,-1.6784,-1.6783,-1.6782,-1.6828,-1.6831,-1.6834,0,0,0,0,0,0,0,0,0,0,0,0,0,-1.6703,-1.6662,-1.6757,-1.6755,-1.6755,-1.6801,-1.6802,-1.6802,-1.6786,-1.6784,-1.6782,-1.6781,-1.6828,-1.6831,-1.6834,-1.6885,0,0,-1.6844,-1.6846,0,0,0,0,0,0,0,0,-1.67,-1.6706,-1.6754,-1.6755,-1.6755,-1.6786,-1.6785,-1.683,-1.6786,-1.6774,-1.6782,-1.678,-1.6816,-1.682,-1.6832,-1.6888,-1.689,-1.6845,-1.6847,-1.6848,-1.6849,0,0,0,0,0,0,0,-1.6697,-1.6704,-1.6774,-1.6755,-1.6756,-1.6752,-1.6757,-1.6793,-1.6803,-1.6775,-1.6774,-1.6779,-1.6816,-1.6829,-1.6833,-1.689,-1.6844,-1.6847,-1.6849,-1.6851,-1.6991,-1.6992,0,0,0,0,0,0,-1.6694,-1.6702,-1.6773,-1.6776,-1.6723,-1.6755,-1.676,-1.6778,-1.6803,-1.6805,-1.678,-1.6778,-1.6824,-1.6829,-1.6835,-1.6897,-1.6848,-1.6851,-1.6853,-1.6989,-1.6991,-1.6993,0,0,0,0,0,0,-1.6692,-1.67,-1.6771,-1.6739,-1.6747,-1.6758,-1.6778,-1.6779,-1.6792,-1.6807,-1.6809,-1.6791,-1.6823,-1.683,-1.6873,-1.6898,-1.6853,-1.6856,-1.6987,-1.699,-1.6992,-1.7021,0,0,0,0,0,0,-1.6689,-1.67,-1.6719,-1.6739,-1.6749,-1.6808,-1.678,-1.6781,-1.6798,-1.6795,-1.6818,-1.682,-1.6822,-1.6868,-1.6876,-1.6902,-1.6858,-1.6985,-1.6988,-1.6991,-1.7018,-1.7024,-1.7029,0,0,0,0,0,-1.6686,-1.6725,-1.672,-1.6729,-1.6773,-1.681,-1.6815,-1.6817,-1.68,-1.6819,-1.6829,-1.6819,-1.6894,-1.6873,-1.6882,-1.6909,-1.6983,-1.6987,-1.6991,-1.7015,-1.7023,-1.7029,0,0,0,0,0,0,-1.6708,-1.6728,-1.6722,-1.6769,-1.6788,-1.6807,-1.6831,-1.6825,-1.6849,-1.6846,-1.6847,-1.6852,-1.6896,-1.6907,-1.6883,-1.696,-1.6936,-1.6942,-1.6951,-1.6959,-1.6965,-1.6961,-1.6861,0,0,0,0,0,-1.6719,-1.6746,-1.6762,-1.6802,-1.6812,-1.682,-1.6836,-1.6836,-1.6855,-1.6863,-1.6876,-1.6895,-1.6923,-1.6942,-1.6968,-1.7019,-1.7024,-1.7042,-1.7048,-1.7053,-1.7058,-1.7086,-1.7094,-1.7006,-1.7006,-1.7006,0,0,-1.6741,-1.6755,-1.6772,-1.6807,-1.6822,-1.6851,-1.6827,-1.6859,-1.688,-1.6868,-1.6909,-1.6919,-1.6941,-1.6989,-1.701,-1.6999,-1.7084,-1.7058,-1.7062,-1.7064,-1.7091,-1.7099,-1.7107,-1.7009,-1.7008,-1.7008,0,0,-1.6795,-1.6809,-1.6844,-1.6859,-1.688,-1.6886,-1.6894,-1.6914,-1.692,-1.6961,-1.6953,-1.6979,-1.7027,-1.7043,-1.7058,-1.7119,-1.7112,-1.7128,-1.7159,-1.7186,-1.7193,-1.7199,-1.7222,-1.7229,-1.7133,-1.7133,-1.7133,0,-1.682,-1.6863,-1.6863,-1.6895,-1.6911,-1.6901,-1.6937,-1.6951,-1.6981,-1.6993,-1.6979,-1.7039,-1.7054,-1.7105,-1.712,-1.7132,-1.7142,-1.7125,-1.7192,-1.7198,-1.7204,-1.7225,-1.7234,-1.7135,-1.7135,-1.7135,-1.7134,0,-1.6892,-1.6922,-1.6948,-1.6976,-1.6995,-1.7029,-1.7035,-1.7054,-1.7052,-1.7059,-1.7102,-1.7118,-1.7148,-1.716,-1.7159,-1.7211,-1.7204,-1.7191,-1.7168,-1.7214,-1.7234,-1.7242,-1.7138,-1.7137,-1.7136,-1.7136,0,0,-1.6962,-1.699,-1.6999,-1.7012,-1.7036,-1.7059,-1.7093,-1.7122,-1.7138,-1.7159,-1.7188,-1.7229,-1.7218,-1.7235,-1.7235,-1.7259,-1.7307,-1.7244,-1.7244,-1.7255,-1.7366,-1.7375,-1.7385,-1.7302,-1.7304,-1.7305,-1.7365,0,-1.7018,-1.7077,-1.7078,-1.7132,-1.716,-1.7151,-1.7181,-1.7199,-1.7207,-1.7232,-1.7241,-1.727,-1.7253,-1.7262,-1.7286,-1.7296,-1.7329,-1.7292,-1.7329,-1.7331,-1.7324,-1.7395,-1.7405,-1.746,-1.7372,-1.7374,-1.7375,0,-1.7092,-1.7114,-1.7171,-1.7191,-1.7203,-1.7229,-1.7256,-1.728,-1.7301,-1.7305,-1.7323,-1.732,-1.7356,-1.7331,-1.738,-1.7355,-1.737,-1.7378,-1.738,-1.7383,-1.7355,-1.74,-1.7478,-1.7486,-1.7387,-1.7386,-1.7385,0,-1.7137,-1.7182,-1.7221,-1.7233,-1.7257,-1.7276,-1.7287,-1.7306,-1.7323,-1.7347,-1.7358,-1.7386,-1.7401,-1.7423,-1.7428,-1.7409,-1.7477,-1.7453,-1.7482,-1.7482,-1.7496,-1.7495,-1.7577,-1.7507,-1.7506,-1.7506,-1.7506,0,-1.7199,-1.7234,-1.7242,-1.7266,-1.7306,-1.7308,-1.7347,-1.7356,-1.7374,-1.74,-1.7395,-1.742,-1.7425,-1.7452,-1.7456,-1.7496,-1.7503,-1.7507,-1.7508,-1.7508,-1.7507,-1.7518,-1.7514,-1.7508,-1.7508,-1.7508,-1.7507,0,-1.7256,-1.7262,-1.7305,-1.7325,-1.7331,-1.7359,-1.7376,-1.74,-1.7407,-1.7441,-1.7449,-1.746,-1.7491,-1.7498,-1.7535,-1.7538,-1.7586,-1.7583,-1.7579,-1.7578,-1.7607,-1.7604,-1.7699,-1.7711,-1.7632,-1.7633,-1.7634,0,-1.7295,-1.7322,-1.7344,-1.7362,-1.7373,-1.7401,-1.7419,-1.7422,-1.7441,-1.7467,-1.7488,-1.7518,-1.7542,-1.7593,-1.7605,-1.7634,-1.7631,-1.7662,-1.7635,-1.7634,-1.7632,-1.763,-1.7633,-1.7667,-1.7668,-1.7669,-1.7669,0,-1.7365,-1.7367,-1.7392,-1.7419,-1.744,-1.7461,-1.7481,-1.7496,-1.7502,-1.7523,-1.7555,-1.7574,-1.7612,-1.7642,-1.7671,-1.7683,-1.7678,-1.7678,-1.7686,-1.7686,-1.7682,-1.7685,-1.7593,-1.7675,-1.7675,-1.7674,-1.7674,-1.7674,-1.7414,-1.7437,-1.7457,-1.7485,-1.7501,-1.752,-1.7543,-1.7553,-1.758,-1.761,-1.7611,-1.7645,-1.7666,-1.7704,-1.7718,-1.7746,-1.7736,-1.7748,-1.7751,-1.7754,-1.7756,-1.7678,-1.7751,-1.7751,-1.7751,-1.775,-1.775,0,-1.7483,-1.7495,-1.7521,-1.7549,-1.7572,-1.7565,-1.7587,-1.7606,-1.7637,-1.7656,-1.768,-1.7717,-1.7747,-1.7761,-1.7791,-1.781,-1.7809,-1.7818,-1.7817,-1.782,-1.7763,-1.7753,-1.7819,-1.7819,-1.7819,-1.7819,-1.7819,-1.7819,-1.7521,-1.756,-1.7565,-1.7612,-1.7624,-1.7658,-1.7671,-1.7689,-1.7705,-1.7746,-1.777,-1.7779,-1.7797,-1.7828,-1.7855,-1.7859,-1.787,-1.7881,-1.7883,-1.783,-1.7823,-1.7817,-1.7807,-1.7883,-1.7883,-1.7937,-1.7938,-1.7938]}]]